Location: Unspecified
(52.4292°N, 19.3359°E)
Time: 17:21:16
(UTC+02:00)

Transit 2A Rocket - Pass Details

Date: 25 May 2024
Orbit: 583 x 910 km, 66.7° (Epoch: 14 June)

Event Time Altitude Azimuth Distance (km) Brightness Sun altitude
Rises 10:12:53 0° 317° (NW) 3,329 7.9 47.8°
Reaches altitude 10° 10:15:32 10° 328° (NNW) 2,446 7.3 48.2°
Maximum altitude 10:20:35 32° 30° (NNE) 1,465 6.8 48.8°
Drops below altitude 10° 10:25:55 10° 92° (E) 2,574 8.4 49.4°
Sets 10:28:45 0° 103° (ESE) 3,530 9.0 49.8°
